Wind_Speed
10 9 10 10 9 6 5 5 4 3 3 2 1 1 1 1 1 1 1 2 4 4 2 2 1 1 2 3 1 10 15 6 16 10 8 4 7 8 10 10 12 12 5 5 6
7 7 7 7 8 8 7 7 6 5 5 4 3 3 2 2 2 2 2 1 2 3 2 1 1 2 2 3 2 7 5 7 10 9 5 8 4 7 7 9 8 10 9 7 6
10 10 9 8 8 9 9 9 8 8 8 8 7 8 8 7 6 4 2 2 2 1 1 1 1 3 2 0 2 6 10 7 15 12 6 5 8 8 11 7 9 7 9 6 7
6 6 5 5 5 7 7 7 6 6 6 6 6 7 8 8 8 8 7 3 3 3 4 2 2 4 4 1 7 6 9 7 10 8 6 6 7 9 7 11 6 6 7 7 7
3 3 3 4 4 4 3 3 2 2 2 2 3 4 5 6 7 7 7 6 5 3 7 6 5 6 5 4 4 8 4 6 9 7 7 4 3 12 11 8 7 9 6 5 5
1 1 0 1 2 3 3 2 2 2 2 2 3 4 4 5 5 6 6 6 6 5 5 9 8 9 5 1 1 3 6 6 7 9 4 1 6 9 10 6 5 6 6 5 4
4 5 5 6 6 7 7 7 7 6 6 6 6 7 8 7 8 7 7 6 6 5 4 6 11 11 9 8 1 3 2 5 6 8 7 7 9 5 8 5 5 6 7 6 5
10 11 11 12 12 12 13 13 13 13 13 13 13 13 12 12 11 11 9 9 8 6 5 6 7 12 10 13 9 6 2 3 13 9 5 6 15 14 10 7 10 8 7 8 6
15 15 16 17 18 19 19 20 20 20 20 20 19 18 17 17 15 14 13 11 10 9 7 7 8 9 13 13 10 12 7 7 15 11 8 7 8 10 11 12 6 8 5 7 5
18 18 19 20 20 21 22 23 24 24 23 25 23 23 19 17 17 16 15 14 13 12 11 9 9 9 10 12 13 1 12 10 10 18 10 13 9 8 17 14 12 7 5 6 2
20 21 21 23 23 24 25 26 26 26 25 28 24 26 22 21 19 19 18 17 16 15 14 12 9 8 9 11 12 1 11 6 13 20 16 11 7 9 5 7 9 10 8 6 6
19 20 21 21 22 21 22 22 22 23 20 26 25 26 27 25 24 24 23 22 21 19 18 14 10 12 11 12 12 10 14 14 14 17 10 18 21 18 12 12 4 14 12 8 7
15 15 14 13 12 13 14 15 16 17 13 20 19 16 21 19 17 21 21 24 22 22 20 16 16 15 13 13 12 13 14 20 19 24 19 10 12 17 15 10 9 18 14 12 7
13 11 10 11 11 12 14 15 16 18 17 16 17 16 16 16 15 20 15 22 22 22 22 18 20 19 17 13 15 15 14 19 20 17 18 15 15 17 16 16 18 9 17 11 8
15 14 13 13 14 14 15 16 17 18 19 19 13 13 13 14 17 19 18 18 20 21 23 17 20 20 18 15 16 16 17 17 17 24 22 14 24 21 18 15 18 21 16 14 8
16 17 16 17 17 18 18 19 19 20 23 25 21 20 19 17 19 21 20 16 21 23 23 20 20 21 18 18 18 18 17 21 23 20 21 10 12 16 16 17 20 15 19 6 10
19 20 22 23 25 25 24 23 22 21 20 22 27 26 17 17 19 22 23 15 17 20 19 19 19 18 18 16 18 19 20 20 23 23 9 10 17 23 21 22 22 27 19 6 10
24 25 27 28 29 29 28 26 23 24 19 17 25 31 25 22 16 20 23 18 16 20 21 22 16 10 6 17 16 20 20 20 21 14 12 15 26 27 17 18 21 23 19 14 14
21 21 23 23 23 23 23 21 20 24 28 28 29 24 18 21 22 19 20 19 14 19 21 22 23 11 19 18 21 18 24 12 18 14 21 26 24 27 35 20 12 10 13 14 18
20 19 21 22 23 24 23 22 20 21 22 21 23 20 22 19 13 22 18 17 15 13 19 18 23 18 9 15 17 17 20 16 12 18 26 29 26 10 25 15 11 14 18 17 17
23 23 21 25 24 24 22 21 22 26 28 28 23 23 26 25 23 24 26 19 18 22 24 17 22 24 21 18 22 20 21 26 22 17 18 20 25 22 21 17 17 21 20 17 22
28 28 21 25 25 27 24 25 28 28 31 30 24 26 27 29 29 30 32 28 31 26 30 24 21 24 29 24 16 23 19 28 28 21 22 20 22 28 23 15 20 19 22 24 12
29 31 29 24 28 31 30 29 30 34 30 34 33 31 32 33 34 33 38 35 35 36 29 29 31 29 30 29 25 22 22 23 20 21 17 16 18 31 27 21 24 25 24 20 18
29 32 35 30 30 35 34 32 32 35 34 32 35 35 34 34 35 36 40 40 40 41 39 39 37 37 32 21 17 21 27 24 28 23 15 15 17 24 29 28 26 28 26 24 22
36 36 37 38 39 37 34 34 35 36 35 39 38 38 38 37 37 38 39 44 47 48 46 46 45 40 39 23 32 27 32 34 20 26 28 20 24 29 31 33 32 38 40 28 16
34 36 40 36 38 40 38 37 38 38 39 39 41 46 42 41 43 42 46 44 52 58 56 53 53 47 45 37 35 37 21 17 30 35 36 32 31 36 33 38 44 43 37 22 30
39 40 38 36 38 39 40 41 42 43 43 40 44 47 45 41 44 42 44 44 43 56 62 58 56 54 51 48 38 48 31 23 37 34 30 40 33 31 35 38 41 46 43 35 36
Wind_Direction
110 114 110 111 110 103 108 116 122 124 125 138 166 236 263 252 260 272 13 38 31 43 68 84 139 218 8 279 89 318 34 21 19 357 18 311 355 357 349 9 35 45 72 10 18
108 107 109 108 105 100 98 96 95 90 87 81 63 42 6 344 321 305 292 326 24 42 89 160 170 201 173 200 8 345 27 35 44 358 341 219 53 37 349 17 33 51 58 18 23
97 101 103 102 100 99 95 89 83 78 73 67 61 59 54 43 41 19 319 293 257 307 46 176 192 267 179 203 45 294 7 44 16 14 90 23 30 12 347 45 26 38 68 35 9
90 96 98 101 103 100 90 81 75 75 71 67 60 56 46 40 38 35 35 353 267 230 251 261 241 248 270 212 52 12 47 334 44 12 26 68 282 337 359 310 46 41 38 51 7
72 90 108 116 126 128 89 61 70 73 56 49 45 34 26 21 18 16 18 20 11 267 241 246 254 261 268 302 34 72 321 319 5 24 27 347 171 310 313 297 29 35 20 37 26
63 345 324 212 225 248 270 285 288 301 322 339 344 341 338 334 338 335 349 356 2 0 283 250 242 259 260 295 71 189 59 359 21 327 61 38 310 334 330 308 344 36 15 358 12
286 285 279 274 272 270 272 272 268 267 278 287 296 305 311 314 305 305 311 315 328 351 336 283 253 248 250 224 212 289 194 335 340 320 355 341 320 345 20 356 56 36 7 346 349
278 275 275 274 271 272 273 274 274 274 276 280 285 289 293 291 290 289 292 293 299 310 322 319 286 259 242 254 247 206 166 296 300 309 356 338 52 44 21 354 38 22 16 341 345
278 277 274 271 272 272 272 272 272 272 275 278 279 279 282 285 282 281 280 277 287 295 299 301 301 271 259 248 246 247 232 284 299 314 303 304 355 332 359 356 8 41 10 329 343
278 275 274 273 272 272 273 273 272 272 276 276 274 277 276 274 273 272 273 271 274 280 288 285 292 301 270 255 266 89 296 291 264 278 279 307 329 305 336 323 332 9 5 15 295
280 278 276 276 274 273 274 276 277 277 275 273 276 275 274 272 267 268 271 270 270 274 277 277 285 291 274 255 231 20 304 276 254 269 308 299 298 307 290 290 314 331 3 2 317
286 287 285 281 278 277 278 280 281 280 278 275 274 271 272 266 263 264 265 265 266 268 270 269 275 267 273 254 209 140 296 290 280 293 322 317 303 302 301 300 318 346 328 307 261
284 287 288 287 287 287 289 291 288 292 292 282 287 281 274 277 268 262 257 258 259 261 263 260 259 259 258 267 243 185 229 252 269 291 321 291 302 299 322 314 299 309 312 303 286
278 284 286 292 298 300 304 304 303 300 298 291 295 289 282 280 265 261 250 255 254 254 257 255 255 255 253 249 259 223 236 230 274 273 269 287 289 297 288 300 323 287 321 292 284
278 285 286 296 301 304 304 303 301 297 293 290 289 282 276 276 278 271 266 251 255 249 249 244 242 254 253 256 250 249 233 192 225 281 287 261 276 279 281 296 311 299 305 268 277
281 283 286 288 292 296 298 296 295 294 291 289 288 281 282 277 276 273 270 255 252 251 251 246 245 245 240 248 253 252 253 233 210 222 263 329 275 275 284 302 314 283 293 285 281
281 284 286 286 288 289 290 286 287 288 292 291 286 279 274 283 279 276 273 260 252 250 252 247 246 250 255 256 263 256 251 245 239 241 259 249 253 255 261 273 276 278 278 311 314
277 276 279 281 284 287 286 285 283 277 265 242 269 284 292 285 275 274 273 272 256 252 244 234 231 227 285 267 261 253 255 255 254 251 261 271 267 276 260 245 258 264 281 296 337
288 288 287 287 286 287 289 288 275 263 269 268 268 280 279 282 289 283 284 275 261 248 244 250 236 176 275 281 261 258 249 255 253 220 254 272 272 293 260 253 252 291 311 255 300
289 289 289 289 287 287 286 279 272 271 268 265 270 270 264 245 240 286 289 296 288 287 260 229 240 198 228 285 275 249 245 223 244 247 230 254 270 310 312 273 247 258 303 280 253
294 292 292 288 287 286 284 281 272 267 265 265 261 258 254 248 235 213 261 292 287 290 290 277 241 202 194 221 268 275 241 236 227 224 263 264 271 297 304 277 240 228 267 274 270
293 292 295 289 289 286 286 281 275 269 269 270 264 257 248 247 246 220 212 219 222 244 260 265 268 250 220 215 229 272 276 227 234 230 235 242 256 272 277 266 287 268 277 276 249
292 291 291 294 293 286 282 277 273 271 265 268 267 256 252 250 245 243 234 209 220 219 221 232 245 241 246 219 207 230 258 236 237 256 223 232 264 285 287 302 296 289 287 268 285
288 291 293 296 291 287 286 281 276 274 276 267 265 262 258 255 253 245 238 223 223 221 219 226 233 239 241 236 214 235 250 254 239 229 214 221 260 276 276 282 279 279 283 267 294
286 290 294 297 295 287 280 278 277 275 275 274 270 262 262 257 251 247 241 224 220 227 223 223 225 230 229 218 205 230 211 231 242 220 227 214 247 252 260 266 266 265 264 255 261
293 292 290 290 289 287 283 278 271 267 267 265 267 267 260 260 255 247 243 231 218 229 237 232 228 229 232 223 223 224 217 231 221 232 224 211 242 245 254 260 263 275 260 280 272
292 290 288 289 286 283 280 276 274 271 266 261 257 263 267 265 260 257 253 252 236 226 234 238 236 239 239 234 228 229 216 216 218 226 229 214 226 251 261 271 268 248 261 257 259
Height
5886 5887 5888 5889 5889 5890 5891 5891 5892 5892 5893 5893 5893 5893 5893 5894 5894 5894 5894 5895 5894 5894 5894 5894 5893 5891 5889 5890 5889 5886 5887 5886 5885 5885 5886 5885 5884 5884 5883 5880 5879 5881 5881 5882 5882
5888 5889 5889 5890 5890 5891 5891 5891 5892 5892 5893 5893 5893 5893 5893 5893 5893 5893 5894 5894 5894 5894 5893 5893 5893 5891 5890 5890 5890 5888 5885 5887 5887 5886 5881 5884 5884 5885 5885 5884 5883 5884 5883 5882 5882
5890 5891 5891 5891 5892 5892 5893 5893 5893 5893 5893 5893 5893 5893 5893 5892 5893 5893 5893 5893 5893 5893 5893 5893 5892 5892 5890 5889 5888 5888 5889 5886 5888 5885 5883 5883 5883 5884 5883 5884 5883 5885 5886 5884 5883
5892 5892 5892 5893 5893 5893 5894 5894 5894 5894 5894 5894 5894 5894 5893 5893 5894 5893 5892 5892 5892 5892 5892 5892 5892 5891 5889 5889 5889 5890 5891 5882 5876 5889 5885 5886 5881 5884 5885 5883 5885 5884 5884 5884 5884
5892 5893 5893 5893 5894 5894 5894 5894 5894 5894 5894 5894 5894 5894 5894 5894 5893 5893 5892 5891 5891 5891 5891 5891 5891 5890 5889 5887 5888 5889 5889 5890 5891 5891 5889 5886 5885 5888 5886 5885 5884 5883 5883 5885 5886
5892 5893 5893 5893 5893 5894 5894 5894 5894 5894 5894 5894 5894 5894 5894 5894 5893 5892 5892 5891 5891 5890 5890 5890 5890 5889 5888 5887 5888 5889 5895 5892 5888 5888 5889 5887 5887 5890 5886 5884 5884 5883 5883 5884 5886
5892 5892 5892 5892 5892 5892 5892 5893 5893 5893 5892 5892 5892 5892 5893 5893 5891 5891 5890 5890 5890 5890 5889 5888 5887 5887 5886 5885 5887 5888 5890 5892 5887 5890 5891 5885 5888 5887 5888 5884 5885 5883 5883 5884 5884
5890 5890 5890 5890 5890 5890 5890 5890 5890 5890 5889 5890 5890 5890 5890 5890 5889 5889 5889 5888 5888 5888 5888 5887 5886 5884 5885 5883 5884 5886 5888 5892 5887 5890 5893 5891 5888 5887 5887 5888 5886 5884 5883 5883 5884
5887 5887 5886 5886 5886 5886 5886 5886 5885 5885 5885 5886 5886 5886 5887 5886 5886 5886 5886 5886 5886 5886 5886 5885 5884 5883 5882 5883 5884 5883 5887 5890 5890 5892 5891 5891 5884 5887 5889 5888 5886 5883 5884 5885 5883
5883 5883 5882 5882 5881 5881 5881 5880 5880 5880 5881 5880 5881 5882 5883 5883 5882 5882 5882 5883 5883 5883 5884 5883 5883 5882 5881 5882 5882 5882 5883 5887 5889 5890 5888 5889 5885 5885 5884 5885 5885 5883 5884 5884 5884
5878 5878 5877 5877 5877 5876 5876 5875 5876 5876 5876 5874 5876 5875 5877 5877 5878 5878 5878 5879 5879 5880 5880 5881 5881 5881 5880 5880 5879 5879 5880 5886 5885 5884 5882 5883 5885 5885 5887 5886 5885 5884 5883 5884 5885
5873 5873 5872 5871 5871 5871 5870 5870 5870 5869 5871 5867 5868 5869 5868 5870 5873 5873 5874 5875 5875 5875 5876 5879 5879 5878 5878 5877 5877 5880 5880 5882 5878 5881 5880 5880 5879 5880 5883 5886 5886 5884 5885 5885 5887
5870 5869 5868 5868 5867 5867 5867 5866 5865 5864 5865 5863 5864 5865 5862 5864 5866 5866 5869 5868 5870 5870 5871 5874 5875 5874 5874 5876 5874 5877 5882 5877 5878 5874 5874 5878 5878 5879 5878 5880 5876 5882 5883 5883 5882
5866 5866 5865 5865 5866 5864 5863 5862 5861 5860 5860 5862 5860 5860 5859 5859 5860 5859 5863 5863 5864 5865 5866 5869 5869 5870 5870 5872 5873 5874 5877 5878 5874 5878 5881 5878 5876 5876 5877 5876 5878 5879 5879 5880 5880
5862 5862 5862 5861 5860 5860 5860 5858 5858 5857 5857 5856 5858 5857 5856 5857 5856 5855 5856 5857 5858 5859 5860 5864 5864 5864 5866 5868 5868 5870 5871 5872 5876 5874 5875 5877 5874 5873 5875 5875 5877 5877 5880 5877 5875
5858 5858 5858 5857 5856 5856 5855 5854 5854 5854 5850 5850 5852 5850 5850 5852 5850 5850 5850 5852 5852 5853 5854 5857 5858 5859 5862 5863 5865 5866 5867 5868 5869 5870 5871 5872 5873 5870 5870 5874 5874 5877 5879 5875 5874
5854 5854 5853 5852 5852 5851 5850 5850 5851 5848 5848 5844 5843 5844 5847 5846 5846 5844 5845 5847 5848 5848 5850 5852 5853 5855 5857 5860 5861 5861 5862 5864 5865 5865 5870 5869 5867 5863 5865 5869 5871 5873 5872 5874 5872
5848 5848 5847 5847 5845 5845 5844 5845 5845 5842 5841 5839 5838 5835 5839 5840 5843 5840 5839 5841 5843 5844 5845 5845 5848 5852 5855 5855 5856 5856 5858 5859 5859 5862 5864 5865 5863 5862 5863 5862 5867 5870 5868 5866 5869
5842 5842 5841 5840 5839 5838 5838 5838 5836 5834 5834 5833 5832 5836 5834 5834 5835 5835 5834 5836 5838 5840 5840 5840 5841 5843 5848 5849 5851 5854 5852 5857 5855 5856 5858 5859 5861 5863 5857 5860 5863 5860 5862 5868 5867
5836 5837 5835 5834 5833 5832 5832 5831 5830 5829 5829 5829 5828 5830 5830 5831 5834 5831 5833 5834 5834 5835 5836 5838 5836 5840 5842 5844 5845 5847 5851 5850 5852 5853 5852 5852 5853 5857 5857 5856 5853 5857 5859 5860 5863
5830 5830 5831 5827 5827 5826 5826 5825 5824 5821 5820 5820 5823 5823 5822 5824 5824 5825 5830 5831 5831 5832 5832 5833 5833 5838 5837 5839 5841 5843 5844 5845 5847 5849 5850 5851 5851 5854 5856 5852 5847 5850 5853 5859 5864
5823 5820 5824 5819 5820 5817 5818 5816 5816 5815 5813 5813 5815 5814 5815 5816 5817 5817 5819 5823 5823 5825 5826 5828 5829 5829 5832 5836 5837 5839 5840 5842 5842 5847 5846 5847 5848 5850 5854 5850 5848 5847 5854 5855 5859
5816 5812 5812 5813 5811 5808 5808 5807 5806 5804 5806 5803 5803 5804 5805 5807 5808 5810 5810 5814 5813 5815 5819 5821 5821 5823 5825 5830 5832 5833 5836 5838 5840 5842 5843 5845 5848 5843 5842 5844 5844 5844 5853 5851 5852
5809 5805 5802 5805 5802 5797 5796 5795 5794 5791 5792 5794 5793 5793 5794 5796 5798 5800 5801 5807 5804 5804 5809 5812 5814 5816 5818 5824 5829 5828 5830 5833 5835 5836 5840 5844 5847 5845 5837 5840 5841 5843 5845 5851 5850
5800 5797 5794 5790 5787 5786 5787 5785 5783 5781 5781 5778 5780 5782 5782 5783 5785 5787 5790 5796 5796 5794 5796 5800 5801 5806 5809 5816 5817 5815 5821 5826 5829 5832 5833 5839 5840 5841 5838 5838 5838 5837 5838 5847 5852
5789 5788 5782 5781 5777 5773 5773 5773 5772 5772 5771 5769 5767 5763 5769 5770 5771 5773 5772 5777 5782 5782 5784 5788 5789 5795 5799 5808 5812 5808 5810 5817 5822 5824 5827 5831 5831 5831 5833 5831 5833 5833 5835 5833 5835
5777 5774 5771 5770 5766 5764 5762 5759 5758 5756 5756 5757 5755 5753 5755 5758 5756 5759 5762 5767 5773 5773 5773 5778 5781 5784 5787 5796 5803 5802 5807 5809 5812 5816 5819 5823 5825 5824 5826 5822 5823 5830 5823 5822 5829